Content
SEND FEEDBACK

Daily
Averages
Monthly
Summary
United States of America

CHICAGO, ILLINOIS


Home > North America > United States > Illinois
Elevation: 674 feet     Latitude: 41 59N     Longitude: 087 54W

WEATHER
 
SELECT A DAY
Number of Records: 198,060;   Date Range: 7/8/95 - 10/29/14
 
SHARE

PRINT THIS DATA

[ ← Previous Day ]
WEATHER ALMANAC - JULY 16, 2013
[ Next Day → ]
[ °C ]   °F
Weather ElementAverageHighLow
Temperature85 °F93 °F (1:52 pm)75 °F (4:52 am)
Dewpoint71.4 °F73 °F (8:52 am)70 °F (2:52 pm)
Humidity65.1 %87 % (1:52 am)48 % (2:52 pm)
Barometer30.27 in30.31 in (7:52 am)30.24 in (5:52 pm)
Wind Speed4.6 mph9.2 mph (2:52 pm)
Weather ElementAverage
Visibility9.7 mi
Wind DirectionSSE (150.4 °)

Weather ElementTotal
Precipitation---
Cooling Degree Days19 (Base 65)
Growing Degree Days34 (Base 50)
Averaged from 23 records on July 16, 2013
WEATHER CONDITIONS BREAKOUT
WIND DIRECTION BREAKOUT
WEATHER BY HOUR - JULY 16, 2013
[ °C ]   °F
Local TimeTemperatureDewpointHumidityBarometerVisibilityWind DirectionWind SpeedGust SpeedPrecipitationEventsConditions
1:52 AM75.9 °F72.0 °F87 %30.26 in10.0 miCalmClear
2:52 AM75.9 °F71.1 °F85 %30.27 in10.0 miCalmClear
3:52 AM75.9 °F71.1 °F85 %30.27 in9.0 miSSE (160°)3.5 mphClear
4:52 AM75.0 °F71.1 °F87 %30.27 in9.0 miCalmClear
5:52 AM75.0 °F71.1 °F87 %30.29 in8.0 miCalmClear
6:52 AM78.1 °F72.0 °F81 %30.30 in9.0 miSouth (190°)4.6 mphScattered Clouds
7:52 AM80.1 °F72.0 °F76 %30.31 in10.0 miSW (220°)5.8 mphOvercast
8:52 AM84.0 °F73.0 °F69 %30.31 in10.0 miVariable6.9 mphScattered Clouds
9:52 AM86.0 °F73.0 °F65 %30.30 in10.0 miVariable5.8 mphPartly Cloudy
10:52 AM88.0 °F72.0 °F59 %30.30 in10.0 miWest (270°)8.1 mphMostly Cloudy
11:52 AM88.0 °F71.1 °F57 %30.29 in10.0 miWest (270°)5.8 mphOvercast
12:52 PM91.0 °F72.0 °F53 %30.28 in10.0 miSouth (190°)5.8 mphPartly Cloudy
1:52 PM93.0 °F71.1 °F49 %30.27 in8.0 miWSW (240°)6.9 mphPartly Cloudy
2:52 PM91.9 °F70.0 °F48 %30.26 in10.0 miWest (260°)9.2 mphScattered Clouds
3:52 PM91.0 °F71.1 °F52 %30.25 in10.0 miWSW (250°)8.1 mphScattered Clouds
4:52 PM91.9 °F70.0 °F48 %30.25 in10.0 miSW (230°)5.8 mphMostly Cloudy
5:52 PM91.9 °F70.0 °F48 %30.24 in10.0 miSW (230°)6.9 mphPartly Cloudy
6:52 PM91.0 °F71.1 °F52 %30.24 in10.0 miSW (230°)6.9 mphScattered Clouds
7:52 PM90.0 °F71.1 °F54 %30.25 in10.0 miWest (260°)5.8 mphPartly Cloudy
8:52 PM88.0 °F71.1 °F57 %30.26 in10.0 miWSW (250°)4.6 mphClear
9:52 PM86.0 °F72.0 °F63 %30.27 in10.0 miCalmClear
10:52 PM84.0 °F72.0 °F67 %30.27 in10.0 miSSW (210°)4.6 mphClear
11:52 PM82.9 °F72.0 °F69 %30.28 in10.0 miCalmClear
Hourly data recorded from KPWK, located miles away from Chicago, Illinois







STORIES FROM OUR PARTNERS